Starlink 4707

operational
NORAD ID: 53721 Int'l Des: 2022-107 Owner: SPXS Country: US Constellation: starlink
LEOCIRCULAR

关于 Starlink 4707

正在加载描述...

实时位置

正在加载3D地球...

即将过境

高度历史

Altitude vs Time

uPlot chart will show altitude changes over time

两行轨道根数

1 53721U 22107X 25260.45686278 .00000319 00000-0 38163-4 0 9999
2 53721 53.2177 311.6323 0001244 90.7689 269.3446 15.08836266168266
Epoch: Sep 17, 2025 • Age: 31 hours

当前状态

高度 548.4 km
速度 7.59 km/s
星下点 -27.47°S, 121.15°W
发射日期 Sep 5, 2022
运行时间 3 years
类型 internet

技术详情

分类 Payload
质量 305.00 kg
干质量 290.00 kg
总质量 305.00 kg
长度 0.20 m
直径 2.80 m
跨度 9.00 m
形状 Box + pan
制造商 SPXS
平台类型 Starlink
阶段状态 In Orbit
所有者/国家 SPXS/US

大型星座

Loading constellations...